DW6289 Buckley WA US current weather conditions

sailwx.info

Wind from 109

Air temperature 4.4° C
Dewpoint 4.3° C

Last reported at 2019-Dec-15 19:58 UTC.
Time now 2019-Dec-15 20:53 UTC

Location: N 47°07' W 122°05'.
View on Google Maps.

See reports from other nearby stations

  
Tides and Currents Weather Stations Pressure Air Temp Water Temp Dewpoint Dewpoint Depression Visibility Wind Speed Wind Dir Waves Ship Positions
date/time (UTC)wind fromknots sea level pressurealtimeterstation pressurevisibilityair tempwater tempwave heightnotes
2019-Dec-15 19:58 109 4.4
2019-Dec-15 19:53 109 4.4
2019-Dec-15 19:48 109 4.4
2019-Dec-15 19:43 109 4.4
2019-Dec-15 19:38 109 4.4
2019-Dec-15 19:33 109 4.4
2019-Dec-15 19:28 109 4.4
2019-Dec-15 19:23 109 4.4
2019-Dec-15 19:18 109 4.4
2019-Dec-15 19:13 109 3.9
2019-Dec-15 19:08 109 3.9
2019-Dec-15 19:03 108 3.9
2019-Dec-15 18:58 099 3.9
2019-Dec-15 18:53 100 1 gusting 5 3.9
2019-Dec-15 18:48 101 4.4
2019-Dec-15 18:43 101 4.4
2019-Dec-15 18:38 101 4.4
2019-Dec-15 18:33 101 4.4
2019-Dec-15 18:28 101 3.9
2019-Dec-15 18:23 101 3.9
2019-Dec-15 18:18 100 3.9
2019-Dec-15 18:13 120 3.9
2019-Dec-15 18:08 188 3.9
2019-Dec-15 18:03 188 3.3
2019-Dec-15 17:58 188 3.3
2019-Dec-15 17:53 188 3.3
2019-Dec-15 17:48 188 3.3
2019-Dec-15 17:43 188 2.8
2019-Dec-15 17:38 188 2.8
2019-Dec-15 17:33 188 2.8
2019-Dec-15 17:28 188 2.8
2019-Dec-15 17:23 188 2.8
2019-Dec-15 17:18 188 2.2
2019-Dec-15 17:13 188 2.2
2019-Dec-15 17:08 188 2.2
2019-Dec-15 17:03 188 2.2
2019-Dec-15 16:58 188 2.2
2019-Dec-15 16:54 188 2.2
2019-Dec-15 16:48 188 2.2
2019-Dec-15 16:43 188 2.2
2019-Dec-15 16:38 188 1.7
2019-Dec-15 16:33 188 1.7
2019-Dec-15 16:28 188 1.7
2019-Dec-15 16:23 188 1.7
2019-Dec-15 16:18 188 1.7
2019-Dec-15 16:13 188 1.7
2019-Dec-15 16:08 188 1.7
2019-Dec-15 16:03 188 1.7
2019-Dec-15 15:58 188 1.7
2019-Dec-15 15:53 188 2.2
2019-Dec-15 15:48 188 2.2
2019-Dec-15 15:43 188 2.2
2019-Dec-15 15:38 188 2.2
2019-Dec-15 15:33 188 2.2
2019-Dec-15 15:28 188 2.2
2019-Dec-15 15:23 188 2.2
2019-Dec-15 15:18 188 2.2
2019-Dec-15 15:13 188 2.2
2019-Dec-15 15:08 188 2.2
2019-Dec-15 15:03 188 2.2
2019-Dec-15 14:58 188 2.2
2019-Dec-15 14:53 188 2.2
2019-Dec-15 14:48 188 2.2
2019-Dec-15 14:43 188 2.2
2019-Dec-15 14:38 188 2.2
2019-Dec-15 14:33 188 2.2
2019-Dec-15 14:28 188 2.2
2019-Dec-15 14:23 188 2.8
2019-Dec-15 14:18 188 2.8
2019-Dec-15 14:13 188 2.8
2019-Dec-15 14:08 188 2.8
2019-Dec-15 14:03 188 2.8
2019-Dec-15 13:58 188 2.8
2019-Dec-15 13:53 188 2.8
2019-Dec-15 13:48 188 2.8
2019-Dec-15 13:43 188 2.8
2019-Dec-15 13:38 188 2.8
2019-Dec-15 13:33 188 2.8
2019-Dec-15 13:28 188 2.8
2019-Dec-15 13:23 188 2.8
2019-Dec-15 13:18 188 2.8
2019-Dec-15 13:13 188 2.8
2019-Dec-15 13:08 188 2.8
2019-Dec-15 13:03 188 2.8
2019-Dec-15 12:58 188 2.8
2019-Dec-15 12:53 188 2.8
2019-Dec-15 12:48 188 2.8
2019-Dec-15 12:43 188 2.8
2019-Dec-15 12:38 188 2.8
2019-Dec-15 12:33 188 2.8
2019-Dec-15 12:28 188 2.8
2019-Dec-15 12:23 188 2.8
2019-Dec-15 12:18 188 2.8
2019-Dec-15 12:13 188 2.8
2019-Dec-15 12:08 188 2.8
2019-Dec-15 12:03 188 2.8
2019-Dec-15 11:58 188 2.8
2019-Dec-15 11:53 188 3.3
2019-Dec-15 11:48 188 3.3
2019-Dec-15 11:43 188 3.3
2019-Dec-15 11:38 188 3.3
2019-Dec-15 11:33 188 3.3
2019-Dec-15 11:28 188 3.3
2019-Dec-15 11:23 188 3.3
2019-Dec-15 11:18 188 3.3
2019-Dec-15 11:13 188 3.3
2019-Dec-15 11:08 188 3.3
2019-Dec-15 11:03 188 3.3
2019-Dec-15 10:58 188 3.3
2019-Dec-15 10:53 188 3.3
2019-Dec-15 10:48 188 3.3
2019-Dec-15 10:43 188 2.8
2019-Dec-15 10:38 188 2.8
2019-Dec-15 10:33 188 2.8
2019-Dec-15 10:28 188 2.8
2019-Dec-15 10:23 188 2.8
2019-Dec-15 10:18 188 3.3
2019-Dec-15 10:13 188 3.3
2019-Dec-15 10:08 188 3.3
2019-Dec-15 10:03 188 3.3
2019-Dec-15 09:58 188 3.3
2019-Dec-15 09:53 188 3.3
2019-Dec-15 09:48 188 3.3
2019-Dec-15 09:43 188 3.3
2019-Dec-15 09:38 188 3.3
2019-Dec-15 09:33 188 3.3
2019-Dec-15 09:28 188 3.3
2019-Dec-15 09:23 188 3.3
2019-Dec-15 09:18 188 3.3
2019-Dec-15 09:13 188 3.3
2019-Dec-15 09:08 188 3.3
2019-Dec-15 09:03 188 3.3
2019-Dec-15 08:58 188 3.9
2019-Dec-15 08:53 188 3.9
2019-Dec-15 08:48 188 3.9
2019-Dec-15 08:43 188 3.9
2019-Dec-15 08:38 188 3.9
2019-Dec-15 08:33 188 3.9
2019-Dec-15 08:28 188 3.3
2019-Dec-15 08:23 188 3.9
2019-Dec-15 08:18 188 3.3
2019-Dec-15 08:13 188 3.3
2019-Dec-15 08:08 188 3.3
2019-Dec-15 08:03 188 3.3
2019-Dec-15 07:58 188 3.3
2019-Dec-15 07:53 188 3.3
2019-Dec-15 07:48 188 3.3
2019-Dec-15 07:43 188 3.3
2019-Dec-15 07:38 188 3.3
2019-Dec-15 07:33 188 3.3
2019-Dec-15 07:28 188 3.3
2019-Dec-15 07:23 188 3.3
2019-Dec-15 07:18 188 3.3
2019-Dec-15 07:13 188 3.3
2019-Dec-15 07:08 188 3.9
2019-Dec-15 07:03 188 3.9
2019-Dec-15 06:58 188 3.9
2019-Dec-15 06:53 188 3.9
2019-Dec-15 06:43 188 3.9
2019-Dec-15 06:33 188 3.9
2019-Dec-15 06:28 188 3.9
2019-Dec-15 06:18 188 3.9
2019-Dec-15 06:13 188 3.9
2019-Dec-15 06:08 188 3.9
2019-Dec-15 06:03 188 3.9
2019-Dec-15 05:58 188 3.9
2019-Dec-15 05:53 188 3.9
2019-Dec-15 05:48 188 3.9
2019-Dec-15 05:43 188 3.9
2019-Dec-15 05:38 188 3.9
2019-Dec-15 05:33 188 3.9
2019-Dec-15 05:28 188 3.9
2019-Dec-15 05:23 188 3.9
2019-Dec-15 05:18 188 3.9
2019-Dec-15 05:13 188 3.9
2019-Dec-15 05:08 188 3.9
2019-Dec-15 05:03 188 3.9
2019-Dec-15 04:58 188 3.9
2019-Dec-15 04:53 188 3.9
2019-Dec-15 04:48 188 3.9
2019-Dec-15 04:43 188 3.9
2019-Dec-15 04:38 188 3.9
2019-Dec-15 04:33 188 3.9
2019-Dec-15 04:28 188 3.9
2019-Dec-15 04:23 188 3.9
2019-Dec-15 04:18 188 3.9
2019-Dec-15 04:13 188 3.9
2019-Dec-15 04:08 188 3.9
2019-Dec-15 04:03 188 3.9
2019-Dec-15 03:58 188 3.9
2019-Dec-15 03:53 188 3.9
2019-Dec-15 03:48 188 0 gusting 3 4.4
2019-Dec-15 03:43 240 4.4
2019-Dec-15 03:38 240 4.4
2019-Dec-15 03:33 240 4.4
2019-Dec-15 03:28 240 4.4
2019-Dec-15 03:23 240 4.4
2019-Dec-15 03:18 240 4.4
2019-Dec-15 03:13 240 4.4
2019-Dec-15 03:08 240 4.4
2019-Dec-15 03:03 240 4.4
2019-Dec-15 02:58 240 4.4
2019-Dec-15 02:53 240 4.4
2019-Dec-15 02:48 240 4.4
2019-Dec-15 02:43 240 4.4
2019-Dec-15 02:38 240 4.4
2019-Dec-15 02:33 240 4.4
2019-Dec-15 02:28 240 4.4
2019-Dec-15 02:23 240 4.4
2019-Dec-15 02:18 240 4.4
2019-Dec-15 02:13 240 4.4
2019-Dec-15 02:08 240 4.4
2019-Dec-15 02:03 240 4.4
2019-Dec-15 01:58 240 4.4
2019-Dec-15 01:53 240 4.4
2019-Dec-15 01:48 240 4.4
2019-Dec-15 01:43 240 5.0
2019-Dec-15 01:38 240 5.0
2019-Dec-15 01:33 240 5.0
2019-Dec-15 01:28 240 5.0
2019-Dec-15 01:23 240 5.0
2019-Dec-15 01:18 240 5.0
2019-Dec-15 01:13 240 5.0
2019-Dec-15 01:08 240 5.0
2019-Dec-15 01:03 240 5.0
2019-Dec-15 00:58 240 5.0
2019-Dec-15 00:53 240 5.0
2019-Dec-15 00:48 240 5.0
2019-Dec-15 00:43 240 5.0
2019-Dec-15 00:38 240 5.0
2019-Dec-15 00:33 240 5.0
2019-Dec-15 00:28 240 5.0
2019-Dec-15 00:23 240 5.0
2019-Dec-15 00:18 240 5.0
2019-Dec-15 00:13 240 5.0
2019-Dec-15 00:08 240 5.0
2019-Dec-15 00:03 240 5.0
2019-Dec-14 23:58 240 5.0
2019-Dec-14 23:53 240 5.6
2019-Dec-14 23:48 240 5.6
2019-Dec-14 23:43 240 5.6
2019-Dec-14 23:38 240 5.6
2019-Dec-14 23:33 240 5.6
2019-Dec-14 23:28 240 5.6
2019-Dec-14 23:23 240 5.6
2019-Dec-14 23:18 240 5.6
2019-Dec-14 23:13 240 5.6
2019-Dec-14 23:08 240 5.6
2019-Dec-14 23:03 240 5.6
2019-Dec-14 22:58 240 5.6
2019-Dec-14 22:53 240 5.6
2019-Dec-14 22:48 240 5.6
2019-Dec-14 22:43 240 5.6
2019-Dec-14 22:38 240 5.6
2019-Dec-14 22:33 240 5.6
2019-Dec-14 22:28 240 5.6
2019-Dec-14 22:23 240 5.6
2019-Dec-14 22:18 240 5.6
2019-Dec-14 22:13 240 5.6
2019-Dec-14 22:08 240 5.6
2019-Dec-14 22:03 240 5.6
2019-Dec-14 21:58 240 5.6
2019-Dec-14 21:53 240 5.6
2019-Dec-14 21:48 240 5.6
2019-Dec-14 21:43 240 5.6
2019-Dec-14 21:38 240 5.6
2019-Dec-14 21:33 240 5.6
2019-Dec-14 21:28 240 5.6
2019-Dec-14 21:23 240 5.6
2019-Dec-14 21:18 240 5.6
2019-Dec-14 21:03 240 5.6
2019-Dec-14 20:58 240 5.6
2019-Dec-14 20:53 240 5.6
2019-Dec-14 20:48 240 5.0
2019-Dec-14 20:43 240 5.0
2019-Dec-14 20:38 240 5.0
2019-Dec-14 20:33 240 5.0
2019-Dec-14 20:28 240 5.0
2019-Dec-14 20:23 240 5.0
2019-Dec-14 20:18 240 5.0
2019-Dec-14 20:13 240 5.0
2019-Dec-14 20:08 240 5.0
2019-Dec-14 20:03 240 5.0
2019-Dec-14 19:58 240 5.0
2019-Dec-14 19:48 240 5.0
2019-Dec-14 19:43 240 5.0
2019-Dec-14 19:38 240 5.0
2019-Dec-14 19:33 240 5.0
2019-Dec-14 19:28 240 5.0
2019-Dec-14 19:23 240 5.0
2019-Dec-14 19:18 240 5.0
2019-Dec-14 19:13 240 5.0
2019-Dec-14 19:08 240 5.0
2019-Dec-14 19:03 240 5.0
2019-Dec-14 18:58 240 5.0
2019-Dec-14 18:53 240 5.0
2019-Dec-14 18:48 240 4.4
2019-Dec-14 18:43 240 4.4
2019-Dec-14 18:38 240 4.4
2019-Dec-14 18:33 240 4.4
2019-Dec-14 18:28 240 4.4
2019-Dec-14 18:23 240 4.4
2019-Dec-14 18:18 240 4.4
2019-Dec-14 18:13 240 4.4
2019-Dec-14 18:08 240 4.4
2019-Dec-14 18:03 240 4.4
2019-Dec-14 17:58 240 4.4
2019-Dec-14 17:53 240 4.4
2019-Dec-14 17:48 240 4.4
2019-Dec-14 17:43 240 3.9
2019-Dec-14 17:38 240 3.9
2019-Dec-14 17:33 240 3.9
2019-Dec-14 17:28 240 3.9
2019-Dec-14 17:23 240 3.9
2019-Dec-14 17:18 240 3.9
2019-Dec-14 17:13 240 3.9
2019-Dec-14 17:08 240 3.9
2019-Dec-14 17:03 240 3.9
2019-Dec-14 16:58 240 3.9
2019-Dec-14 16:53 240 3.9
2019-Dec-14 16:48 240 3.9
2019-Dec-14 16:43 240 3.9
2019-Dec-14 16:38 240 3.9
2019-Dec-14 16:33 240 3.9
2019-Dec-14 16:28 240 3.9
2019-Dec-14 16:23 240 3.9
2019-Dec-14 16:18 240 3.9
2019-Dec-14 16:13 240 3.9
2019-Dec-14 16:08 240 3.9
2019-Dec-14 16:03 240 3.9
2019-Dec-14 15:58 240 3.9
2019-Dec-14 15:53 240 3.9
2019-Dec-14 15:48 240 3.9
2019-Dec-14 15:43 240 3.9
2019-Dec-14 15:38 240 3.9
2019-Dec-14 15:33 240 3.3
2019-Dec-14 15:28 240 3.3
2019-Dec-14 15:23 240 3.3
2019-Dec-14 15:18 240 3.3
2019-Dec-14 15:13 240 3.3
2019-Dec-14 15:08 240 3.3
2019-Dec-14 15:03 240 3.3
2019-Dec-14 14:58 240 3.3
2019-Dec-14 14:53 240 3.3
2019-Dec-14 14:48 240 3.3
2019-Dec-14 14:43 240 3.3
2019-Dec-14 14:38 240 3.3
2019-Dec-14 14:33 240 3.3
2019-Dec-14 14:28 240 3.3
2019-Dec-14 14:23 240 3.3
2019-Dec-14 14:18 240 3.3
2019-Dec-14 14:13 240 3.3
2019-Dec-14 14:08 240 3.3
2019-Dec-14 14:03 240 3.3
2019-Dec-14 13:58 240 3.3
2019-Dec-14 13:53 240 3.3
2019-Dec-14 13:48 240 3.3
2019-Dec-14 13:43 240 3.3
2019-Dec-14 13:38 240 3.3
2019-Dec-14 13:33 240 3.3
2019-Dec-14 13:28 240 3.9
2019-Dec-14 13:23 240 3.9
2019-Dec-14 13:18 240 3.9
2019-Dec-14 13:13 240 3.9
2019-Dec-14 13:08 240 3.9
2019-Dec-14 13:03 240 3.9
2019-Dec-14 12:58 240 3.9
2019-Dec-14 12:53 240 3.9
2019-Dec-14 12:48 240 3.9
2019-Dec-14 12:43 240 3.9
2019-Dec-14 12:38 240 3.9
2019-Dec-14 12:33 240 3.9
2019-Dec-14 12:28 240 3.9
2019-Dec-14 12:23 313 3.9
2019-Dec-14 12:18 312 3.9
2019-Dec-14 12:13 101 3.9
2019-Dec-14 12:08 101 3.9
2019-Dec-14 12:03 101 3.9
2019-Dec-14 11:58 101 3.9
2019-Dec-14 11:53 101 3.9
2019-Dec-14 11:48 101 3.9
2019-Dec-14 11:43 101 3.9
2019-Dec-14 11:38 101 3.9
2019-Dec-14 11:33 101 3.9
2019-Dec-14 11:28 101 3.9
2019-Dec-14 11:23 101 3.9
2019-Dec-14 11:18 101 3.9
2019-Dec-14 11:13 101 3.9
2019-Dec-14 11:08 101 3.9
2019-Dec-14 11:03 101 3.9
2019-Dec-14 10:58 101 3.9
2019-Dec-14 10:53 101 3.9
2019-Dec-14 10:48 101 3.9
2019-Dec-14 10:43 101 3.9
2019-Dec-14 10:38 101 3.9
2019-Dec-14 10:33 101 3.9
2019-Dec-14 10:28 101 3.9
2019-Dec-14 10:23 101 4.4
2019-Dec-14 10:18 101 4.4
2019-Dec-14 10:13 101 4.4
2019-Dec-14 10:08 101 4.4
2019-Dec-14 10:03 101 4.4
2019-Dec-14 09:58 130 4.4
2019-Dec-14 09:53 130 0 gusting 2 3.9
2019-Dec-14 09:48 140 3.9
2019-Dec-14 09:43 140 3.9
2019-Dec-14 09:38 140 3.9
2019-Dec-14 09:33 140 3.9
2019-Dec-14 09:28 140 3.9
2019-Dec-14 09:23 140 3.9
2019-Dec-14 09:18 140 3.9
2019-Dec-14 09:03 140 3.9
2019-Dec-14 08:53 140 3.9
2019-Dec-14 08:48 140 4.4
2019-Dec-14 08:43 140 4.4
2019-Dec-14 08:38 140 4.4
2019-Dec-14 08:33 140 4.4
2019-Dec-14 08:28 140 4.4
2019-Dec-14 08:23 140 4.4
2019-Dec-14 08:18 140 4.4
2019-Dec-14 08:13 140 4.4
2019-Dec-14 08:08 140 4.4
2019-Dec-14 08:03 140 4.4
2019-Dec-14 07:58 140 4.4
2019-Dec-14 07:53 140 4.4
2019-Dec-14 07:48 140 4.4
2019-Dec-14 07:43 140 4.4
2019-Dec-14 07:38 140 4.4
2019-Dec-14 07:33 140 4.4
2019-Dec-14 07:28 140 4.4
2019-Dec-14 07:23 140 4.4
2019-Dec-14 07:18 140 4.4
2019-Dec-14 07:13 140 4.4
2019-Dec-14 07:08 140 4.4
2019-Dec-14 07:03 140 4.4
2019-Dec-14 06:58 140 4.4
2019-Dec-14 06:53 140 4.4
2019-Dec-14 06:48 140 4.4
2019-Dec-14 06:43 140 4.4
2019-Dec-14 06:38 140 4.4
2019-Dec-14 06:33 140 4.4
2019-Dec-14 06:28 140 4.4
2019-Dec-14 06:23 140 4.4
2019-Dec-14 06:18 140 4.4
2019-Dec-14 06:13 140 4.4
2019-Dec-14 06:08 140 4.4
2019-Dec-14 06:03 140 4.4
2019-Dec-14 05:58 140 4.4
2019-Dec-14 05:53 140 4.4
2019-Dec-14 05:48 140 4.4
2019-Dec-14 05:43 140 4.4
2019-Dec-14 05:38 140 4.4
2019-Dec-14 05:33 140 4.4
2019-Dec-14 05:28 140 4.4
2019-Dec-14 05:23 140 4.4
2019-Dec-14 05:18 140 4.4
2019-Dec-14 05:13 140 4.4
2019-Dec-14 05:08 140 4.4
2019-Dec-14 05:03 140 4.4
2019-Dec-14 04:58 140 4.4
2019-Dec-14 04:53 140 4.4
2019-Dec-14 04:48 140 4.4
2019-Dec-14 04:43 140 4.4
2019-Dec-14 04:38 140 4.4
2019-Dec-14 04:33 140 4.4
2019-Dec-14 04:28 140 4.4
2019-Dec-14 04:23 140 4.4
2019-Dec-14 04:18 140 4.4
2019-Dec-14 04:13 140 4.4
2019-Dec-14 04:08 140 4.4
2019-Dec-14 04:03 140 4.4
2019-Dec-14 03:58 140 4.4
2019-Dec-14 03:53 140 4.4
2019-Dec-14 03:48 140 4.4
2019-Dec-14 03:43 140 4.4
2019-Dec-14 03:38 140 4.4
2019-Dec-14 03:33 140 4.4
2019-Dec-14 03:28 140 5.0
2019-Dec-14 03:23 140 5.0
2019-Dec-14 03:18 140 5.0
2019-Dec-14 03:13 140 5.0
2019-Dec-14 03:08 140 5.0
2019-Dec-14 03:03 140 5.0
2019-Dec-14 02:58 140 5.0
2019-Dec-14 02:53 140 5.0
2019-Dec-14 02:48 140 5.0
2019-Dec-14 02:43 140 5.0
2019-Dec-14 02:38 140 5.0
2019-Dec-14 02:33 140 5.0
2019-Dec-14 02:28 140 5.0
2019-Dec-14 02:23 140 5.0
2019-Dec-14 02:18 140 5.0
2019-Dec-14 02:13 140 5.0
2019-Dec-14 02:08 140 5.0
2019-Dec-14 02:03 140 5.0
2019-Dec-14 01:58 140 5.0
2019-Dec-14 01:53 140 5.0
2019-Dec-14 01:48 140 5.0
2019-Dec-14 01:43 140 5.0
2019-Dec-14 01:38 140 5.0
2019-Dec-14 01:33 140 5.0
2019-Dec-14 01:28 140 5.0
2019-Dec-14 01:23 140 5.0
2019-Dec-14 01:18 140 5.0
2019-Dec-14 01:13 140 5.0
2019-Dec-14 01:08 140 5.0
2019-Dec-14 01:03 140 5.0
2019-Dec-14 00:58 140 5.0
2019-Dec-14 00:53 140 5.0
2019-Dec-14 00:48 140 5.0
2019-Dec-14 00:43 140 5.0
2019-Dec-14 00:38 140 5.0
2019-Dec-14 00:33 140 5.0
2019-Dec-14 00:28 140 5.6
2019-Dec-14 00:23 140 5.6
2019-Dec-14 00:18 140 5.6
2019-Dec-14 00:13 140 5.6
2019-Dec-14 00:08 140 5.6
2019-Dec-14 00:03 140 5.6
2019-Dec-13 23:58 140 5.6
2019-Dec-13 23:53 140 5.6
2019-Dec-13 23:48 140 6.1
2019-Dec-13 23:43 140 6.1
2019-Dec-13 23:38 140 6.1
2019-Dec-13 23:33 140 6.1
2019-Dec-13 23:28 140 6.1
2019-Dec-13 23:23 140 6.7
2019-Dec-13 23:18 140 6.7
2019-Dec-13 23:13 242 6.7
2019-Dec-13 23:08 242 6.7
2019-Dec-13 23:03 242 6.7
2019-Dec-13 22:58 242 6.7
2019-Dec-13 22:53 242 6.7
2019-Dec-13 22:48 099 7.2
2019-Dec-13 22:43 099 7.2
2019-Dec-13 22:38 098 7.2
2019-Dec-13 22:33 098 0 gusting 3 7.2
2019-Dec-13 22:28 101 0 gusting 2 7.2
2019-Dec-13 22:23 086 0 gusting 3 7.2
2019-Dec-13 22:18 360 7.8
2019-Dec-13 22:13 127 7.8
2019-Dec-13 22:08 127 7.8
2019-Dec-13 22:03 118 7.8
2019-Dec-13 21:58 099 7.8
2019-Dec-13 21:53 165 7.8
2019-Dec-13 21:48 116 7.8
2019-Dec-13 21:43 283 7.2
2019-Dec-13 21:33 339 7.8
2019-Dec-13 21:28 291 7.8
2019-Dec-13 21:23 288 7.8
2019-Dec-13 21:18 287 0 gusting 4 7.8
2019-Dec-13 21:13 298 7.8
2019-Dec-13 21:08 297 7.2
2019-Dec-13 21:03 298 7.2
2019-Dec-13 20:58 246 7.2
2019-Dec-13 20:53 236 7.2
2019-Dec-13 20:48 256 7.2
2019-Dec-13 20:43 263 7.2
2019-Dec-13 20:38 228 7.2
2019-Dec-13 20:33 246 7.2
2019-Dec-13 20:28 271 7.2
2019-Dec-13 20:23 252 7.2
2019-Dec-13 20:18 222 1 gusting 5 7.2
2019-Dec-13 20:13 224 7.2
2019-Dec-13 20:08 106 7.2
2019-Dec-13 20:03 105 6.7